• In Hungary
  • List of Countries
  • For 7 days
  • Water Temperature
  • Satellite Maps
  • Weather Map
  • News
  • Weather Widgets
  • user-avatar
    Login

    Hourly Weather Gweru

    Today, 18 November, Saturday

    Time Temperature Precipitation Wind Pressure Humidity
    00:00 +16°C° 0 mm 3 mps 643 mmHg 82%
    01:00 +16°C° 0 mm 2 mps 643 mmHg 83%
    02:00 +16°C° 0 mm 2 mps 643 mmHg 85%
    03:00 +15°C° 0 mm 2 mps 643 mmHg 86%
    04:00 +15°C° 0 mm 2 mps 643 mmHg 88%
    05:00 +15°C° 0 mm 2 mps 643 mmHg 89%
    06:00 +17°C° 0 mm 2 mps 644 mmHg 81%
    07:00 +19°C° 0 mm 2 mps 645 mmHg 74%
    08:00 +21°C° 0 mm 2 mps 646 mmHg 63%
    09:00 +24°C° 0 mm 2 mps 646 mmHg 55%
    10:00 +27°C° 0 mm 2 mps 646 mmHg 47%
    11:00 +29°C° 0 mm 1 mps 647 mmHg 39%
    12:00 +28°C° 0 mm 1 mps 646 mmHg 38%
    13:00 +28°C° 0 mm 1 mps 645 mmHg 38%
    14:00 +27°C° 0 mm 1 mps 644 mmHg 38%
    15:00 +27°C° 0 mm 1 mps 644 mmHg 41%
    16:00 +26°C° 0 mm 2 mps 644 mmHg 44%
    17:00 +26°C° 0 mm 2 mps 643 mmHg 47%
    18:00 +24°C° 0.2 mm 2 mps 644 mmHg 52%
    19:00 +23°C° 0.2 mm 2 mps 644 mmHg 58%
    20:00 +21°C° 0.2 mm 2 mps 644 mmHg 63%
    21:00 +21°C° 0.2 mm 2 mps 644 mmHg 67%
    22:00 +20°C° 0.2 mm 2 mps 644 mmHg 71%
    23:00 +19°C° 0.2 mm 2 mps 644 mmHg 75%

    Tomorrow, 19 November, Sunday

    Time Temperature Precipitation Wind Pressure Humidity
    00:00 +19°C° 0 mm 2 mps 644 mmHg 77%
    01:00 +18°C° 0 mm 2 mps 644 mmHg 80%
    02:00 +18°C° 0 mm 2 mps 644 mmHg 82%
    03:00 +18°C° 0 mm 2 mps 644 mmHg 83%
    04:00 +18°C° 0 mm 1 mps 644 mmHg 84%
    05:00 +18°C° 0 mm 1 mps 644 mmHg 86%
    06:00 +19°C° 0.1 mm 2 mps 645 mmHg 77%
    07:00 +21°C° 0.1 mm 2 mps 646 mmHg 68%
    08:00 +24°C° 0.1 mm 2 mps 647 mmHg 59%
    09:00 +26°C° 0.1 mm 3 mps 647 mmHg 50%
    10:00 +28°C° 0.1 mm 3 mps 647 mmHg 41%
    11:00 +30°C° 0.1 mm 3 mps 647 mmHg 32%
    12:00 +30°C° 0 mm 3 mps 647 mmHg 31%
    13:00 +30°C° 0 mm 3 mps 646 mmHg 31%
    14:00 +30°C° 0 mm 3 mps 646 mmHg 30%
    15:00 +29°C° 0 mm 3 mps 645 mmHg 32%
    16:00 +28°C° 0 mm 2 mps 645 mmHg 33%
    17:00 +28°C° 0 mm 2 mps 645 mmHg 35%
    18:00 +27°C° 0 mm 2 mps 645 mmHg 37%
    19:00 +26°C° 0 mm 2 mps 645 mmHg 39%
    20:00 +25°C° 0 mm 2 mps 645 mmHg 41%
    21:00 +24°C° 0 mm 2 mps 645 mmHg 45%
    22:00 +22°C° 0 mm 3 mps 646 mmHg 50%
    23:00 +21°C° 0 mm 3 mps 646 mmHg 54%

    Day after tomorrow, 20 November, Monday

    Time Temperature Precipitation Wind Pressure Humidity
    00:00 +20°C° 0 mm 3 mps 645 mmHg 60%
    01:00 +19°C° 0 mm 3 mps 645 mmHg 67%
    02:00 +19°C° 0 mm 2 mps 644 mmHg 73%
    03:00 +18°C° 0 mm 2 mps 644 mmHg 76%
    04:00 +18°C° 0 mm 2 mps 644 mmHg 80%
    05:00 +18°C° 0 mm 1 mps 644 mmHg 83%
    06:00 +19°C° 0 mm 2 mps 645 mmHg 73%
    07:00 +21°C° 0 mm 2 mps 646 mmHg 62%
    08:00 +24°C° 0 mm 2 mps 647 mmHg 52%
    09:00 +26°C° 0 mm 2 mps 647 mmHg 42%
    10:00 +28°C° 0 mm 3 mps 647 mmHg 31%
    11:00 +30°C° 0 mm 3 mps 648 mmHg 21%
    12:00 +31°C° 0 mm 3 mps 647 mmHg 19%
    13:00 +33°C° 0 mm 3 mps 646 mmHg 17%
    14:00 +34°C° 0 mm 3 mps 646 mmHg 15%
    15:00 +33°C° 0 mm 3 mps 645 mmHg 16%
    16:00 +31°C° 0 mm 3 mps 645 mmHg 17%
    17:00 +32°C° 0 mm 4 mps 644 mmHg 18%
    18:00 +29°C° 0 mm 4 mps 644 mmHg 22%
    19:00 +27°C° 0 mm 4 mps 645 mmHg 26%
    20:00 +25°C° 0 mm 4 mps 645 mmHg 31%
    21:00 +24°C° 0 mm 3 mps 645 mmHg 32%
    22:00 +22°C° 0 mm 3 mps 645 mmHg 34%
    23:00 +21°C° 0 mm 3 mps 645 mmHg 36%

    21 November, Tuesday

    Time Temperature Precipitation Wind Pressure Humidity
    00:00 +20°C° 0 mm 2 mps 644 mmHg 38%
    01:00 +19°C° 0 mm 2 mps 644 mmHg 40%
    02:00 +20°C° 0 mm 1 mps 643 mmHg 42%
    03:00 +19°C° 0 mm 1 mps 643 mmHg 46%
    04:00 +19°C° 0 mm 1 mps 643 mmHg 50%
    05:00 +19°C° 0 mm 1 mps 643 mmHg 55%
    06:00 +21°C° 0 mm 1 mps 644 mmHg 52%
    07:00 +23°C° 0 mm 2 mps 645 mmHg 50%
    08:00 +26°C° 0 mm 2 mps 645 mmHg 48%
    09:00 +28°C° 0 mm 2 mps 646 mmHg 40%
    10:00 +30°C° 0 mm 1 mps 646 mmHg 33%
    11:00 +33°C° 0 mm 1 mps 646 mmHg 26%
    12:00 +32°C° 0 mm 1 mps 645 mmHg 25%
    13:00 +32°C° 0 mm 1 mps 644 mmHg 24%
    14:00 +32°C° 0 mm 1 mps 643 mmHg 23%
    15:00 +31°C° 0 mm 1 mps 643 mmHg 25%
    16:00 +31°C° 0 mm 1 mps 643 mmHg 27%
    17:00 +30°C° 0 mm 1 mps 642 mmHg 28%
    18:00 +29°C° 0 mm 1 mps 642 mmHg 30%
    19:00 +28°C° 0 mm 1 mps 642 mmHg 32%
    20:00 +26°C° 0 mm 1 mps 643 mmHg 35%
    21:00 +26°C° 0 mm 1 mps 643 mmHg 36%
    22:00 +25°C° 0 mm 1 mps 643 mmHg 37%
    23:00 +25°C° 0 mm 1 mps 643 mmHg 38%

    22 November, Wednesday

    Time Temperature Precipitation Wind Pressure Humidity
    00:00 +24°C° 0 mm 1 mps 642 mmHg 39%
    01:00 +24°C° 0 mm 1 mps 642 mmHg 40%
    02:00 +22°C° 0 mm 0 mps 641 mmHg 41%
    03:00 +23°C° 0 mm 1 mps 641 mmHg 43%
    04:00 +23°C° 0 mm 1 mps 641 mmHg 45%
    05:00 +22°C° 0 mm 1 mps 641 mmHg 47%
    06:00 +24°C° 0 mm 2 mps 642 mmHg 44%
    07:00 +26°C° 0 mm 3 mps 643 mmHg 41%
    08:00 +28°C° 0 mm 4 mps 644 mmHg 39%
    09:00 +30°C° 0 mm 4 mps 644 mmHg 34%
    10:00 +33°C° 0 mm 3 mps 644 mmHg 29%
    11:00 +34°C° 0 mm 3 mps 644 mmHg 25%
    12:00 +34°C° 0 mm 3 mps 644 mmHg 26%
    13:00 +32°C° 0 mm 2 mps 643 mmHg 27%
    14:00 +32°C° 0 mm 2 mps 642 mmHg 28%
    15:00 +32°C° 0 mm 2 mps 642 mmHg 28%
    16:00 +31°C° 0 mm 1 mps 642 mmHg 28%
    17:00 +31°C° 0 mm 1 mps 642 mmHg 28%
    18:00 +30°C° 0.1 mm 1 mps 642 mmHg 30%
    19:00 +29°C° 0.1 mm 1 mps 642 mmHg 33%
    20:00 +28°C° 0.1 mm 1 mps 642 mmHg 35%
    21:00 +27°C° 0 mm 1 mps 642 mmHg 37%
    22:00 +26°C° 0 mm 1 mps 642 mmHg 39%
    23:00 +25°C° 0 mm 1 mps 642 mmHg 40%

    23 November, Thursday

    Time Temperature Precipitation Wind Pressure Humidity
    00:00 +25°C° 0 mm 1 mps 642 mmHg 41%
    01:00 +24°C° 0 mm 1 mps 642 mmHg 42%
    02:00 +24°C° 0 mm 1 mps 641 mmHg 43%
    03:00 +23°C° 0 mm 1 mps 642 mmHg 47%
    04:00 +23°C° 0 mm 2 mps 642 mmHg 50%
    05:00 +21°C° 0 mm 2 mps 642 mmHg 54%
    06:00 +22°C° 0 mm 3 mps 643 mmHg 57%
    07:00 +22°C° 0 mm 4 mps 644 mmHg 61%
    08:00 +23°C° 0 mm 5 mps 645 mmHg 64%
    09:00 +25°C° 0.1 mm 5 mps 645 mmHg 61%
    10:00 +26°C° 0.1 mm 5 mps 645 mmHg 59%
    11:00 +26°C° 0.1 mm 4 mps 645 mmHg 57%
    12:00 +26°C° 0.5 mm 5 mps 645 mmHg 56%
    13:00 +27°C° 0.5 mm 5 mps 644 mmHg 56%
    14:00 +27°C° 0.5 mm 5 mps 644 mmHg 56%
    15:00 +25°C° 0.3 mm 5 mps 644 mmHg 60%
    16:00 +23°C° 0.3 mm 5 mps 644 mmHg 65%
    17:00 +22°C° 0.3 mm 5 mps 643 mmHg 70%
    18:00 +21°C° 0.1 mm 5 mps 644 mmHg 74%
    19:00 +20°C° 0.1 mm 5 mps 644 mmHg 77%
    20:00 +19°C° 0.1 mm 5 mps 644 mmHg 80%
    21:00 +19°C° 0.2 mm 5 mps 644 mmHg 81%
    22:00 +19°C° 0.2 mm 5 mps 645 mmHg 81%
    23:00 +19°C° 0.2 mm 4 mps 645 mmHg 81%
    Show more